Location: Plainartige
(45.6866°N, 1.7993°E)
Time: 05:13:13
(UTC+00:00)

deb r/b Ablestar - Pass Details

Date: 27 September 2021
Orbit: 844 x 997 km, 67.7° (Epoch: 25 October)

Event Time Altitude Azimuth Distance (km) Brightness Sun altitude
Rises 22:14:30 0° 319° (NW) 3,417 ? -42.1°
Reaches altitude 10° 22:17:18 10° 307° (NW) 2,487 ? -42.4°
Enters shadow 22:18:29 15° 298° (WNW) 2,148 ? -42.5°
